EHI
0 0 0 0 0 0 0 0 0 0 0 0 0 0 0 0 0 0 0 0 0 0 0 0 0 0 0 0 0 0 0 0 0 0 0 0 0 0
0 0 0 0 0 0 0 0 0 0 0 0 0 0 0 0 0 0 0 0 0 0 0 0 0 0 0 0 0 0 0 0 0 0 0 0 0 0
0 0 0 0 0 0 0 0 0 0 0 0 0 0 0 0 0 0 0 0 0 0 0 0 0 0 0 0 0 0 0 0 0 0 0 0 0 0
0 0 0 0 0 0 0 0 0 0 0 0 0 0 0 0 0 0 0 0 0 0 0 0 0 0 0 0 0 0 0 0 0 0 0 0 0 0
0 0 0 0 0 0 0 0 0 0 0 0 0 0 0 0 0 0 0 0 0 0 0 0 0 0 0 0 0 0 0 0 0 0 0 0 0 0
0 0 0 0 0 0 0 0 0 0 0 0 0 0 0 0 0 0 0 0 0 0 0 0 0 0 0 0 0 0 0 0 0 0 0 0 0 0
0 0 0 0 0 0 0 0 0 0 0 0 0 0 0 0 0 0 0 0 0 0 0 0 0 0 0 0 0 0 0 0 0 0 0 0 0 0
0 0 0 0 0 0 0 0 0 0 0 0 0 0 0 0 0 0 0 0 0 0 0 0 0 0 0 0 0 0 0 0 0 0 0 0 0 0
0 0 0 0 0 0 0 0 0 0 0 0 0 0 0 0 0 0 0 0 0 0 0 0 0 0 0 0 0 0 0 0 0 0 0 0 0 0
0 0 0 0 0 0 0 0 0 0 0 0 0 0 0 0 0 0 0 0 0 0 0 0 0 0 0 0 0 0 0 0 0 0 0 0 0 0
0 0 0 0 0 0 0 0 0 0 0 0 0 0 0 0 0 0 0 0 0 0 0 0 0 0 0 0 0 0 0 0 0 0 0 0 0 0
0 0 0 0 0 0 0 0 0 0 0 0 0 0 0 0 0 0 0 0 0 0 0 0 0 0 0 0 0 0 0 0 0 0 0 0 0 0
0 0 0 0 0 0 0 0 0 0 0 0 0 0 0 0 0 0 0 0 0 0 0 0 0 0 0 0 0 0 0 0 0 0 0 0 0 0
0 0 0 0 0 0 0 0 0 0 0 0 0 0 0 0 0 0 0 0 0 0 0 0 0 0 0 0 0 0 0 0 0 0 0 0 0 0
0 0 0 0 0 0 0 0 0 0 0 0 0 0 0 0 0 0 0 0 0 0 0 0 0 0 0 0 0 0 0 0 0 0 0 0 0 0
0 0 0 0 0 0 0 0 0 0 0 0 0 0 0 0 0 0 0 0 0 0 0 0 0 0 0 0 0 0 0 0 0 0 0 0 0 0
0 0 0 0 0 0 0 0 0 0 0 0 0 0 0 0 0 0 0 0 0 0 0 0 0 0 0 0 0 0 0 0 0 0 0 0 0 0
0 0 0 0 0 0 0 0 0 0 0 0 0 0 0 0 0 0 0 0 0 0 0 0 0 0 0 0 0 0 0 0 0 0 0 0 0 0
0 0 0 0 0 0 0 0 0 0 0 0 0 0 0 0 0 0 0 0 0 0 0 0 0 0 0 0 0 0 0 0 0 0 0 0 0 0
0 0 0 0 0 0 0 0 0 0 0 0 0 0 0 0 0 0 0 0 0 0 0 0 0 0 0 0 0 0 0 0 0 0 0 0 0 0
0 0 0 0 0 0 0 0 0 0 0 0 0 0 0 0 0 0 0 0 0 0 0 0 0 0 0 0 0 0 0 0 0 0 0 0 0 0
0 0 0 0 0 0 0 0 0 0 0 0 0 0 0 0 0 0 0 0 0 0 0 0 0 0 0 0 0 0 0 0 0 0 0 0 0 0
0 0 0 0 0 0 0 0 0 0 0 0 0 0 0 0 0 0 0 0 0 0 0 0 0 0 0 0 0 0 0 0 0 0 0 0 0 0
Wind_Speed
9 10 9 9 9 8 8 8 10 15 16 12 9 8 8 9 16 13 11 20 24 23 22 21 20 20 21 22 21 21 20 19 16 16 15 16 19 22
9 10 11 10 9 9 9 8 9 12 15 12 12 10 11 12 18 13 13 24 22 22 21 21 20 20 21 21 22 21 21 20 18 17 17 16 17 19
11 12 15 14 11 10 9 9 10 10 14 14 11 10 11 11 12 10 11 11 11 20 21 21 21 21 21 22 22 22 22 21 20 18 18 17 15 17
14 14 16 13 14 11 9 11 10 11 12 16 13 10 11 11 11 11 11 11 9 18 22 22 22 22 23 23 23 23 22 21 20 19 18 17 16 14
15 15 15 14 14 11 11 11 11 11 11 13 14 10 9 9 10 10 11 9 11 14 18 20 21 22 23 23 23 23 22 22 21 20 17 15 14 14
13 12 12 12 13 13 11 12 12 12 11 10 11 10 9 8 7 9 10 7 9 10 13 15 17 20 22 23 23 23 22 21 21 20 17 14 13 13
9 9 10 14 17 14 11 9 9 9 9 9 10 10 9 7 7 7 10 10 9 8 7 7 8 8 10 16 20 21 20 21 21 20 18 15 13 13
8 8 10 12 16 20 23 21 18 11 9 9 10 10 10 9 8 9 9 10 8 3 4 8 7 8 8 8 16 20 19 20 20 19 18 16 14 13
8 8 9 10 16 10 18 21 17 20 19 12 11 11 11 10 10 12 10 10 10 6 7 10 6 8 8 10 19 20 19 19 19 19 17 16 14 14
7 8 9 10 13 16 11 7 8 10 14 10 9 11 11 11 11 12 11 10 10 8 7 8 5 6 8 7 16 19 19 19 19 18 17 16 14 14
7 8 10 10 20 23 9 7 9 9 13 16 19 18 20 19 14 8 6 7 8 6 5 6 5 5 6 7 11 18 19 19 19 18 17 15 14 13
6 7 14 17 21 19 8 7 10 9 7 9 12 14 12 13 16 8 6 7 7 6 4 4 4 4 5 4 5 7 10 16 19 19 18 16 14 10
6 6 8 20 20 19 16 8 14 13 7 8 8 8 7 6 7 7 7 7 8 8 4 3 4 3 4 4 3 5 7 7 9 12 15 16 16 14
6 6 8 19 19 19 14 17 20 16 8 8 8 8 8 7 7 7 9 9 11 12 9 6 5 4 4 4 4 3 5 7 7 8 8 12 15 17
5 12 15 17 16 12 16 19 15 9 8 8 9 9 8 8 8 7 8 8 11 12 13 14 12 9 8 7 5 3 3 5 7 8 8 9 10 10
5 9 13 14 12 13 13 11 8 8 9 8 9 9 9 8 7 7 7 7 6 6 9 13 14 13 11 11 9 8 5 4 7 8 8 7 8 9
4 3 4 6 7 7 7 7 7 8 8 8 9 9 10 9 9 8 7 6 5 5 5 5 9 10 12 9 7 9 7 6 6 8 9 9 9 9
5 4 5 6 7 8 8 8 8 8 8 9 9 9 10 10 9 8 7 7 7 6 6 5 3 5 6 9 13 10 7 6 6 8 9 8 10 9
3 4 5 6 7 7 7 7 7 8 8 8 8 9 9 10 9 9 9 8 8 7 6 5 4 4 6 6 7 12 8 6 7 8 9 7 8 11
2 4 5 6 6 7 7 7 7 8 7 7 8 8 9 9 9 9 9 9 9 8 7 5 4 4 5 4 3 4 9 8 8 8 7 5 5 11
3 4 4 5 6 6 7 7 7 7 8 7 7 8 8 9 9 9 9 14 10 7 8 7 6 8 5 3 3 3 3 7 9 7 8 9 9 9
4 4 5 5 6 6 6 7 6 7 7 6 7 7 8 8 10 11 10 10 9 9 9 8 8 5 3 4 4 3 2 3 4 7 7 7 8 11
4 4 5 5 5 5 5 6 7 6 6 6 7 7 8 9 9 9 10 10 9 10 9 8 6 2 1 2 2 2 4 5 5 6 4 7 13 20
Wind_Direction
263 265 265 267 263 259 259 262 278 294 298 300 297 290 294 297 300 303 303 302 300 298 293 287 280 272 266 264 265 267 271 271 274 277 270 260 244 225
265 265 267 267 264 262 259 259 260 273 285 291 293 293 294 300 302 307 303 302 302 297 291 284 278 272 266 262 261 263 265 266 267 271 267 262 247 230
271 269 270 270 268 264 261 261 263 266 277 286 286 288 288 291 296 294 293 292 291 294 289 283 277 272 267 262 259 258 259 261 261 265 265 260 254 237
275 275 275 275 269 265 261 261 264 265 270 282 288 288 286 287 288 291 296 296 293 290 286 281 275 270 265 260 256 253 253 256 258 261 262 259 256 248
275 277 277 275 272 265 260 261 264 269 268 276 286 288 284 284 288 291 289 285 287 287 287 280 273 268 265 258 255 250 247 248 250 254 260 263 257 254
274 275 276 274 271 266 262 261 263 269 271 276 284 287 285 280 280 292 296 288 287 289 282 278 272 268 264 259 253 251 245 243 245 248 252 254 253 250
277 276 279 287 287 282 277 268 264 269 275 281 284 287 288 290 288 288 291 293 287 272 275 277 278 271 266 262 256 252 244 237 238 241 246 248 247 243
285 286 289 293 294 298 300 296 293 292 291 283 287 284 285 283 283 281 283 287 289 279 304 293 280 269 259 249 249 248 243 235 233 234 238 241 240 238
284 290 299 299 305 289 287 291 294 295 297 293 285 283 284 280 276 275 270 267 266 272 292 285 262 261 255 249 247 244 242 236 230 229 231 233 232 231
279 282 285 286 290 292 284 273 263 273 283 284 272 274 274 271 264 265 267 269 268 260 246 266 267 260 258 249 249 243 239 234 226 223 224 226 226 226
280 284 295 289 298 315 325 300 293 287 297 301 304 304 304 306 302 291 279 275 281 273 226 243 266 271 259 244 240 238 234 229 222 220 219 218 218 219
286 289 308 312 318 332 331 308 304 301 300 303 305 304 300 296 300 293 278 272 274 277 242 253 271 284 279 244 220 222 224 223 219 217 215 212 209 210
305 305 306 318 329 335 336 318 315 330 320 304 301 297 292 282 277 268 253 250 250 251 259 290 285 281 280 289 251 216 206 202 206 212 211 208 205 204
304 302 306 326 336 337 333 328 336 338 316 309 310 308 305 298 289 277 264 251 245 248 248 240 256 269 291 290 271 228 211 197 191 194 197 201 205 207
305 320 330 335 337 331 327 337 340 326 315 318 315 312 307 297 294 289 279 264 253 246 242 234 235 243 247 256 277 267 222 201 190 187 187 194 196 195
314 322 333 335 334 328 331 330 324 318 324 319 313 311 310 308 306 304 300 296 280 261 239 229 225 225 234 240 249 261 248 214 192 188 185 192 191 192
327 322 322 326 328 325 324 323 323 324 326 321 319 320 320 320 318 317 307 305 287 287 283 245 224 220 227 233 239 242 238 227 204 186 183 189 190 186
348 324 325 326 325 325 326 325 324 326 326 324 323 323 322 322 320 320 318 311 303 293 284 274 241 210 213 232 228 239 235 218 202 188 182 183 183 175
336 308 312 317 318 318 318 318 317 319 319 321 322 323 323 323 323 324 324 320 313 303 291 276 251 220 214 226 224 216 219 208 194 189 185 179 174 166
292 296 305 311 313 316 317 317 316 318 321 323 322 322 324 323 324 325 323 321 317 311 304 289 259 238 227 228 236 225 215 209 196 185 173 159 141 132
292 296 300 306 310 311 312 313 313 315 319 322 322 323 324 324 324 323 321 322 323 314 310 299 279 277 257 236 231 230 222 213 198 179 162 156 150 144
283 292 298 303 308 307 309 311 313 316 320 322 322 324 324 324 324 325 325 324 321 315 305 294 290 277 217 212 209 200 190 178 174 168 166 167 159 155
277 289 295 302 303 304 306 310 312 315 319 322 324 324 326 327 326 324 324 323 321 320 320 315 315 304 252 225 199 173 156 153 139 127 108 115 111 109